[[{"header":{"parameterUnit":"m.s-1","parameterCategory":1,"la1":30.2991,"la2":30.254,"lo1":-89.0895,"lo2":-89.0444,"dy":0.0017,"dx":0.0017,"nx":28,"ny":28,"refTime":"2024-06-29T21:00:00:Z","depth":0,"parameterNumber":2,"parameterNumberName":"U-component_of_WINDS"},"data":[0,0,0,0,0,0,0,0,0,0,0,0,0,0,0,0,0,0,0,0,0,0,0,0,0,0,0,0,0,0,0,0,0,0,0,0,0,0,0,0,0,0,0,0,0,0,0,0,0,0,0,0,0,0,0,0,0,0,2.3417,2.3417,0,2.3459,2.3459,2.3459,2.3419,2.3418,2.3416,2.3415,2.3457,2.346,2.3462,0,0,0,0,0,0,0,0,0,0,0,0,0,2.3302,2.3304,2.3417,2.3418,2.3418,2.3458,2.3459,2.346,2.342,2.3418,2.3416,2.3414,2.3456,2.3459,2.3463,0,0,0,0,0,0,0,0,0,0,0,0,0,2.3348,2.3305,2.3417,2.3403,2.3402,2.3458,2.3459,2.346,2.342,2.3418,2.3415,2.3413,2.3455,2.3459,2.3463,2.3535,0,0,2.3475,2.3477,0,0,0,0,0,0,0,0,2.3346,2.3353,2.3405,2.3404,2.3403,2.3431,2.3434,2.3485,2.3421,2.3413,2.3415,2.3412,2.3451,2.3455,2.3468,2.3537,2.3539,2.3475,2.3478,2.3479,2.3481,0,0,0,0,0,0,0,2.3343,2.3351,2.3433,2.3405,2.3405,2.3394,2.3398,2.3443,2.3445,2.3414,2.3411,2.3416,2.345,2.3464,2.3468,2.3539,2.3475,2.3479,2.3481,2.3483,2.3667,2.3669,0,0,0,0,0,0,2.3341,2.3348,2.3432,2.3435,2.3368,2.3398,2.3403,2.3425,2.3444,2.3445,2.3418,2.3414,2.3459,2.3464,2.347,2.3553,2.3479,2.3483,2.3485,2.3664,2.3667,2.367,0,0,0,0,0,0,2.3339,2.3349,2.343,2.3391,2.34,2.3403,2.3428,2.3427,2.3441,2.3448,2.3448,2.3433,2.3457,2.3464,2.3518,2.3554,2.3485,2.3488,2.3661,2.3665,2.3669,2.3721,0,0,0,0,0,0,2.3336,2.3348,2.3376,2.3392,2.3403,2.3479,2.343,2.3429,2.3448,2.3443,2.3461,2.3462,2.3456,2.3513,2.3522,2.3558,2.3491,2.3658,2.3663,2.3668,2.3716,2.3726,2.3735,0,0,0,0,0,2.3332,2.339,2.3378,2.3388,2.3437,2.3481,2.3487,2.3479,2.3451,2.3478,2.3482,2.3461,2.3549,2.3519,2.3529,2.3567,2.3656,2.3662,2.3667,2.3712,2.3724,2.3735,0,0,0,0,0,0,2.3379,2.3392,2.3378,2.3443,2.3461,2.3474,2.3509,2.3492,2.3519,2.3513,2.3501,2.3506,2.3562,2.357,2.3536,2.3636,2.3598,2.3606,2.3628,2.364,2.3649,2.3645,2.3495,0,0,0,0,0,2.3397,2.3431,2.3441,2.3497,2.3507,2.3506,2.3525,2.3517,2.3535,2.3542,2.355,2.3569,2.36,2.3621,2.365,2.3718,2.372,2.3749,2.3758,2.3766,2.3772,2.3806,2.3818,2.3689,2.3689,2.3689,0,0,2.3434,2.3446,2.3468,2.3507,2.352,2.3555,2.3513,2.3553,2.3578,2.3548,2.3599,2.3606,2.3625,2.3686,2.3713,2.3694,2.3808,2.3773,2.3779,2.3781,2.3813,2.3825,2.3836,2.3693,2.3692,2.3691,0,0,2.352,2.3533,2.358,2.3594,2.3613,2.3612,2.3624,2.3639,2.3642,2.3693,2.367,2.3701,2.3756,2.377,2.3784,2.3873,2.3854,2.3884,2.3932,2.3965,2.3975,2.3984,2.4013,2.4024,2.389,2.3891,2.3891,0,2.3564,2.3616,2.3606,2.3647,2.3664,2.3638,2.3685,2.3699,2.3727,2.3739,2.3718,2.3784,2.3796,2.3858,2.388,2.3893,2.3904,2.388,2.3974,2.3983,2.3991,2.4019,2.403,2.3894,2.3893,2.3893,2.3893,0,2.3668,2.3704,2.374,2.3767,2.3788,2.3832,2.3828,2.3851,2.3841,2.3842,2.3893,2.3905,2.3936,2.395,2.3942,2.4011,2.3998,2.3976,2.3937,2.4007,2.4033,2.4044,2.3898,2.3897,2.3896,2.3895,0,0,2.3784,2.3804,2.3817,2.3828,2.3848,2.3876,2.3918,2.3947,2.3965,2.3986,2.4019,2.4066,2.4045,2.4061,2.4053,2.4083,2.415,2.4056,2.4057,2.4071,2.4224,2.4239,2.4251,2.4138,2.414,2.4141,2.4221,0,2.3868,2.394,2.3932,2.4001,2.4033,2.4009,2.4045,2.406,2.4062,2.409,2.4092,2.4124,2.4095,2.4104,2.4133,2.4136,2.418,2.413,2.4167,2.4169,2.4161,2.4265,2.4282,2.4357,2.4232,2.4234,2.4235,0,2.3975,2.3999,2.407,2.4083,2.4096,2.4129,2.4154,2.4181,2.4198,2.4197,2.4214,2.4201,2.4242,2.4204,2.4259,2.4225,2.424,2.4244,2.4246,2.4248,2.4204,2.4267,2.4381,2.4391,2.4251,2.425,2.4249,0,2.4049,2.4099,2.4147,2.4158,2.4175,2.4198,2.4206,2.422,2.4238,2.426,2.4271,2.4298,2.4312,2.4333,2.4326,2.43,2.4382,2.4344,2.4381,2.4381,2.4398,2.4397,2.4513,2.4412,2.4412,2.4411,2.4411,0,2.4143,2.4187,2.4181,2.421,2.4259,2.4249,2.4297,2.4302,2.4314,2.4344,2.4325,2.4353,2.4345,2.4372,2.4368,2.4412,2.442,2.4419,2.4417,2.4419,2.4419,2.4427,2.4421,2.4414,2.4414,2.4413,2.4413,0,2.4233,2.4231,2.4281,2.4293,2.4297,2.4331,2.4341,2.4368,2.4368,2.4406,2.4414,2.4415,2.4445,2.4442,2.4477,2.4474,2.4529,2.4522,2.4523,2.452,2.4557,2.4552,2.468,2.4696,2.4587,2.4588,2.4589,0,2.4291,2.4324,2.4339,2.4357,2.4366,2.4397,2.4414,2.4405,2.4424,2.4445,2.4469,2.4498,2.4521,2.4572,2.4575,2.4601,2.4593,2.4636,2.4596,2.4597,2.459,2.4587,2.4589,2.4643,2.4644,2.4645,2.4646,0,2.4394,2.4391,2.4417,2.4442,2.4463,2.4483,2.45,2.4516,2.451,2.4531,2.4562,2.458,2.4615,2.4644,2.4668,2.4676,2.4659,2.4658,2.4668,2.467,2.4668,2.4667,2.4541,2.4655,2.4654,2.4653,2.4653,2.4653,2.4469,2.4496,2.451,2.4539,2.4551,2.4567,2.4593,2.4596,2.4622,2.4649,2.4643,2.4678,2.4692,2.4723,2.4733,2.4759,2.4743,2.4758,2.4761,2.4764,2.4767,2.4666,2.4764,2.4764,2.4763,2.4763,2.4763,0,2.4568,2.4576,2.4603,2.4627,2.465,2.4633,2.4651,2.467,2.4701,2.4716,2.4738,2.4773,2.48,2.4805,2.4831,2.4851,2.4844,2.4858,2.4855,2.4856,2.4781,2.4769,2.4863,2.4863,2.4863,2.4863,2.4863,2.4863,2.4623,2.4667,2.4666,2.4716,2.4723,2.4756,2.4768,2.4782,2.4794,2.4833,2.4856,2.4859,2.4869,2.4895,2.4919,2.492,2.4929,2.4945,2.4943,2.4872,2.4862,2.4852,2.4841,2.4948,2.4948,2.5016,2.5016,2.5017]},{"header":{"parameterUnit":"m.s-1","parameterCategory":1,"la1":30.2991,"la2":30.254,"lo1":-89.0895,"lo2":-89.0444,"dy":0.0017,"dx":0.0017,"nx":28,"ny":28,"refTime":"2024-06-29T21:00:00:Z","depth":0,"parameterNumber":3,"parameterNumberName":"V-component_of_WINDS"},"data":[0,0,0,0,0,0,0,0,0,0,0,0,0,0,0,0,0,0,0,0,0,0,0,0,0,0,0,0,0,0,0,0,0,0,0,0,0,0,0,0,0,0,0,0,0,0,0,0,0,0,0,0,0,0,0,0,0,0,4.3603,4.3605,0,4.3749,4.3751,4.3753,4.3746,4.3744,4.3742,4.374,4.3881,4.3886,4.3892,0,0,0,0,0,0,0,0,0,0,0,0,0,4.3308,4.3313,4.3603,4.3605,4.3607,4.3749,4.3751,4.3753,4.3747,4.3744,4.3742,4.3739,4.3879,4.3886,4.3893,0,0,0,0,0,0,0,0,0,0,0,0,0,4.3443,4.3315,4.3603,4.3621,4.3624,4.3749,4.3751,4.3754,4.3747,4.3744,4.3741,4.3738,4.3877,4.3885,4.3893,4.4007,0,0,4.3919,4.3923,0,0,0,0,0,0,0,0,4.3435,4.3454,4.3616,4.362,4.3623,4.3727,4.3699,4.3838,4.3748,4.37,4.374,4.3737,4.3831,4.3843,4.3877,4.4013,4.4019,4.392,4.3925,4.3929,4.3931,0,0,0,0,0,0,0,4.3426,4.3447,4.366,4.3619,4.3623,4.3618,4.3634,4.3725,4.3781,4.3704,4.3704,4.3722,4.3833,4.3869,4.3881,4.4021,4.392,4.3927,4.3933,4.3936,4.4255,4.4258,0,0,0,0,0,0,4.3414,4.344,4.3656,4.3665,4.352,4.3626,4.3644,4.3696,4.378,4.379,4.3724,4.3721,4.3856,4.3871,4.3885,4.4023,4.3929,4.3937,4.3942,4.4252,4.4256,4.426,0,0,0,0,0,0,4.3408,4.3433,4.365,4.3552,4.358,4.3635,4.3694,4.3701,4.3738,4.3795,4.3804,4.3752,4.3854,4.3874,4.3977,4.4027,4.394,4.3948,4.4248,4.4253,4.4258,4.4298,0,0,0,0,0,0,4.3399,4.3431,4.3477,4.3554,4.3585,4.3742,4.3697,4.3706,4.3753,4.375,4.3824,4.3833,4.3853,4.3964,4.3985,4.4037,4.3955,4.4243,4.425,4.4256,4.4293,4.4304,4.4314,0,0,0,0,0,4.3389,4.3481,4.348,4.3506,4.3644,4.3745,4.3763,4.3787,4.3757,4.3802,4.3839,4.383,4.4019,4.3975,4.3998,4.4054,4.424,4.4248,4.4256,4.4288,4.4302,4.4314,0,0,0,0,0,0,4.3406,4.3492,4.3491,4.3612,4.3672,4.3744,4.3802,4.3802,4.3869,4.3863,4.3888,4.3904,4.4007,4.4041,4.3991,4.4167,4.4125,4.4138,4.4141,4.4155,4.4166,4.4155,4.3962,0,0,0,0,0,4.3425,4.3503,4.3572,4.3671,4.3702,4.3747,4.3791,4.3805,4.3867,4.3892,4.3936,4.3994,4.4065,4.4112,4.4182,4.4297,4.4312,4.4347,4.4357,4.4366,4.4376,4.4438,4.4454,4.4285,4.4285,4.4285,0,0,4.3463,4.3519,4.3566,4.3676,4.3724,4.3801,4.3768,4.3851,4.3907,4.3903,4.4004,4.4038,4.4104,4.4214,4.4264,4.4245,4.4426,4.4376,4.4382,4.4388,4.4447,4.4463,4.4477,4.429,4.4289,4.4288,0,0,4.3571,4.3623,4.3711,4.376,4.3834,4.3864,4.3884,4.3957,4.3981,4.4083,4.4081,4.4147,4.4271,4.4317,4.4357,4.4482,4.4475,4.4503,4.4559,4.4618,4.4632,4.4644,4.4687,4.4702,4.4514,4.4514,4.4514,0,4.3608,4.3727,4.3755,4.3839,4.3886,4.3889,4.3976,4.4022,4.4113,4.4144,4.4122,4.4277,4.4321,4.4441,4.4472,4.4504,4.4527,4.4495,4.4628,4.464,4.4652,4.4693,4.4709,4.4517,4.4516,4.4516,4.4516,0,4.3768,4.385,4.3912,4.4004,4.4058,4.4143,4.4181,4.4231,4.424,4.427,4.4373,4.4426,4.4506,4.4535,4.4543,4.4656,4.4641,4.4623,4.4582,4.467,4.4709,4.4725,4.4521,4.452,4.4519,4.4518,0,0,4.3892,4.3998,4.402,4.4061,4.4143,4.4206,4.4289,4.437,4.4412,4.4475,4.4544,4.4648,4.4632,4.4677,4.469,4.4743,4.4837,4.4719,4.472,4.4737,4.4961,4.4974,4.4992,4.4833,4.4836,4.4839,4.4955,0,4.4008,4.4161,4.4187,4.4319,4.4394,4.4397,4.447,4.4526,4.4556,4.4621,4.4653,4.4726,4.47,4.4727,4.478,4.4814,4.4881,4.4806,4.4894,4.4897,4.4878,4.5012,4.5026,4.5134,4.4971,4.4973,4.4975,0,4.4164,4.4234,4.4374,4.4445,4.4477,4.4543,4.4618,4.4682,4.4744,4.4761,4.4812,4.4819,4.4902,4.4858,4.4971,4.4919,4.4957,4.4979,4.4983,4.4992,4.4941,4.5023,4.5169,4.5184,4.5,4.4998,4.4996,0,4.4239,4.4367,4.4468,4.4503,4.4588,4.4634,4.467,4.473,4.4777,4.4841,4.4871,4.4943,4.4982,4.5037,4.5062,4.5027,4.5173,4.5131,4.5187,4.5187,4.5218,4.5215,4.537,4.5243,4.5243,4.5243,4.5242,0,4.4365,4.445,4.4502,4.4564,4.4659,4.4687,4.4779,4.4814,4.4867,4.4932,4.4938,4.4999,4.5029,4.5093,4.5113,4.5203,4.522,4.5235,4.5239,4.5234,4.5232,4.5258,4.5251,4.5247,4.5246,4.5245,4.5244,0,4.4464,4.4503,4.4613,4.4685,4.4705,4.4771,4.4831,4.4889,4.4919,4.5002,4.5023,4.5069,4.5145,4.5176,4.5268,4.528,4.5384,4.5382,4.5364,4.5365,4.542,4.5414,4.5596,4.5621,4.5478,4.548,4.5481,0,4.4542,4.4608,4.4688,4.4735,4.4774,4.4848,4.4896,4.4925,4.4974,4.505,4.5098,4.5175,4.5238,4.5358,4.5397,4.5467,4.5467,4.5526,4.5477,4.547,4.5466,4.5462,4.5467,4.5534,4.5536,4.5537,4.5538,0,4.4676,4.4692,4.4763,4.484,4.4898,4.496,4.5019,4.5056,4.5093,4.5148,4.5227,4.5276,4.5372,4.5446,4.5519,4.5552,4.5551,4.5553,4.557,4.5565,4.5551,4.5558,4.5387,4.5548,4.5547,4.5547,4.5546,4.5546,4.4766,4.4824,4.489,4.4968,4.5017,4.5072,4.5131,4.5169,4.5237,4.5319,4.533,4.5415,4.5473,4.557,4.5607,4.5671,4.5655,4.568,4.5686,4.5691,4.5694,4.5542,4.5684,4.5684,4.5683,4.5683,4.5683,0,4.4899,4.4941,4.5013,4.5098,4.5159,4.5155,4.522,4.527,4.5346,4.5402,4.5464,4.5554,4.5627,4.5672,4.5744,4.5786,4.5787,4.5804,4.5801,4.5808,4.5705,4.5683,4.5802,4.5802,4.5802,4.5802,4.5802,4.5802,4.4975,4.5074,4.5097,4.5218,4.5259,4.5345,4.5382,4.5432,4.5477,4.5579,4.564,4.567,4.5721,4.5797,4.5862,4.5873,4.5898,4.5917,4.5926,4.5828,4.5816,4.5804,4.5783,4.5922,4.5922,4.6024,4.6025,4.6026]}]]